Location: Bretagne
(43.8474°N, 0.4650°W)
Time: 11:52:27
(UTC+00:00)

Radarsat Rocket - Pass Details

Date: 26 April 2026
Orbit: 933 x 1491 km, 100.5° (Epoch: 12 May)

Event Time Altitude Azimuth Distance (km) Brightness Sun altitude
Rises 19:53:55 0° 194° (SSW) 4,564 7.3 -9.8°
Reaches altitude 10° 19:57:05 10° 203° (SSW) 3,616 6.9 -10.3°
Maximum altitude 20:04:39 34° 265° (W) 2,268 6.5 -11.5°
Drops below altitude 10° 20:12:10 10° 327° (NNW) 3,567 8.1 -12.6°
Sets 20:15:19 0° 337° (NNW) 4,496 8.5 -13.1°
